Regional Weather Roundup
Issued by NWS Charleston, SC

Current Version | Previous Version | Graphics & Text | Print | Product List | Glossary On
Versions: 1 2 3 4 5 6 7 8 9 10 11 12 13 14 15 16 17 18 19 20 21 22 23 24 25 26 27 28 29 30 31 32 33 34 35 36 37 38 39 40 41 42 43 44 45 46 47 48 49 50
000 ASUS42 KCHS 220741 RWRCHS REGIONAL WEATHER ROUNDUP NATIONAL WEATHER SERVICE CHARLESTON SC 300 AM EDT FRI SEP 22 2017 NOTE: "FAIR" INDICATES FEW OR NO CLOUDS BELOW 12,000 FEET WITH NO SIGNIFICANT WEATHER AND/OR OBSTRUCTIONS TO VISIBILITY. NOT ALL STATIONS ARE QUALITY CONTROLLED. USE DATA WITH CAUTION... ESPECIALLY DEWPOINT OBSERVATIONS. SCZ027-030-031-034>040-042>050-220800- ...SOUTHEAST SOUTH CAROLINA... CITY SKY/WX TMP DP RH WIND PRES REMARKS N CHARLESTON PTCLDY 69 68 96 N3 30.00F WATERFRONT PRK N/A 78 75 90 CALM 29.84F JOHNS ISLAND FAIR 73 72 94 CALM 30.00S PINOPOLIS N/A 72 68 88 CALM 29.94S MONCKS CORNER FAIR 64 64 100 CALM 30.01F SUMMERVILLE FAIR 68 66 94 CALM 30.02F BEAUFORT MCAS CLEAR 74 72 93 NW3 30.00F BEAUFORT ARPT FAIR 72 72 100 CALM 29.99F HILTON HEAD IS CLEAR 73 73 100 CALM 30.00F WALTERBORO MOSUNNY 64 64 100 CALM 30.02S ALLENDALE NOT AVBL ...SOUTHERN MIDLANDS AND PEE DEE... CITY SKY/WX TMP DP RH WIND PRES REMARKS GEORGETOWN FAIR 68 66 94 CALM 30.02S FOG KINGSTREE FAIR 63 63 100 CALM 30.02S ORANGEBURG CLEAR 69 66 90 CALM 30.03F BARNWELL FAIR 70 70 100 CALM 30.02F AIKEN FAIR 68 64 88 CALM 30.05F MANNING FAIR 64 59 82 CALM 30.02S COLUMBIA CLOUDY 72 69 90 CALM 30.02S SUMTER CLEAR 68 65 92 CALM 30.00F FLORENCE CLEAR 67 66 97 N3 30.03F MYRTLE BEACH CLEAR 70 68 93 CALM 30.03F N MYRTLE BEACH CLEAR 68 66 93 N3 30.02F $$ GAZ063-065-086>088-099>101-113>116-118-119-134>141-150-220800- ...SOUTHEAST GEORGIA... CITY SKY/WX TMP DP RH WIND PRES REMARKS SAVANNAH ARPT PTCLDY 72 71 97 N5 30.00F FOG HUNTER AAF MOCLDY 73 71 94 CALM 29.97F FORT STEWART CLEAR 70 68 94 CALM 29.98S STATESBORO CLEAR 69 68 97 CALM 30.01S SYLVANIA SUNNY 68 68 100 CALM 30.02S FOG CLAXTON FAIR 71 70 98 CALM 30.01S FOG ...CSRA...CENTRAL AND FAR SOUTHEAST GEORGIA... CITY SKY/WX TMP DP RH WIND PRES REMARKS THOMSON CLEAR 69 67 92 CALM 30.07S AUGUSTA-BUSH CLEAR 69 67 93 CALM 30.01S AUGUSTA-DANIEL CLEAR 73 67 81 CALM 30.03S SWAINSBORO FAIR 68 68 100 CALM 30.02S VIDALIA CLEAR 72 72 100 CALM 30.01S EASTMAN FAIR 69 69 100 CALM 30.03S FOG HAZLEHURST FAIR 74 71 92 CALM 29.99S ALMA FOG 70 68 93 CALM 29.99F VSB 1 WAYCROSS CLEAR 70 67 90 CALM 29.99F FOG JESUP NOT AVBL BAXLEY FAIR 68 68 100 CALM 29.99F FOG BRUNSWICK CLOUDY 72 70 94 CALM 29.99F FOG SAINT SIMONS CLOUDY 80 74 81 CALM 29.98F $$ SCZ027-028-034-036>038-045-046-048>050-GAZ119-141-220800- ...LAKE AND SUPPLEMENTAL COASTAL OBSERVATIONS... STATION/POSITION TIME TEMP WIND PRES WAVE SWELL AIR SEA DIR/SP/G HT/PER HT/PER/DIR (UTC) (F) (DEG/KT/KT) (MB) (FT/S) (FT/S/D) WINYAH BAY 0630 72 310/ 3 1016.0S LAKE MURRAY 0720 75 120/ 4/ 7 1015.9S ACE BASIN NERRS 0645 72 CALM 1016.0S FORT PULASKI 0700 78 80 160/ 1/ 2 1016.0 SAPELO ISLAND 0700 75 CALM 1015.0 $$ ANZ835-935-AMZ111-154-330-350-352-354-370-450-454-472-220800- ...C-MAN AND BUOY OBSERVATIONS... STATION/POSITION TIME TEMP WIND PRES WAVE SWELL AIR SEA DIR/SP/G HT/PER HT/PER/DIR (UTC) (F) (DEG/KT/KT) (MB) (FT/S) (FT/S/D) BUOY 41004 0710 80 81 CALM / 2 1014.9 BUOY 41008 0650 80 80 80/ 6/ 8 1015.1F 2/11 2/110/11 FOLLY BEACH CMAN 0700 78 CALM / 1 1016.2F CAPERS NEARSHORE 0708 77 81 170/ 2/ 4 1015.6F FRIPP NEARSHORE 0708 79 150/ 4/ 6 1020.3F STATION/POSITION TIME TEMP WIND PRES WAVE SWELL AIR SEA DIR/SP/G HT/PER HT/PER/DIR (UTC) (F) (DEG/KT/KT) (MB) (FT/S) (FT/S/D) 5E ST. MARYS GA 0630 82 N/A 2/11 2/100/11 FRYING PAN BUOY 0710 80 82 130/ 4/ 6 1015.3 BUOY 41025 0550 75 75 30/ 6/ 8 1016.9 5/11 5/ 80/11 CAPE LOOKOUT NC 0700 77 80/ 9/ 10 1016.0F BUOY 41002 0650 78 80 120/ 2/ 4 1015.4F 5/11 5/ 80/11 BUOY 41010 0710 60/ 12/ 14 1013.8 ST AUGUSTINE FL 0700 81 83 70/ 10/ 11 1014.4F $$

USA.gov is the U.S. government's official web portal to all federal, state and local government web resources and services.